DMSP 5D-2 F11 DEB, 28312

Orbit data source: Space-Track

DMSP 5D-2 F11 DEB, 28312 is space debris in SSO originally from a launch on Thu, 28 Nov 1991 UTC launched from the Air Force Western Test Range (AFWTR). Debris objects in space refer to the collection of defunct objects orbiting the Earth. Examples of debris include non-operational satellites, rocket bodies, and fragments generated from explosions, collisions, or faulty payload assembly.

Loading next visibility...
Identifier
28312, 1991-082Z
Orbit
SSO
Country
Flag of USUS
Related business
Manufacturer
Unknown
Mission
Spacecraft
Bus & Motor
Unknown
Mass
Unknown
Launch date (UTC)
1991-11-28 (35 years ago)
Launch vehicle
Unknown
Launch site
Air Force Western Test Range (AFWTR)
Object type
Payload
Rocket body
Debris
Shape & HBR
Unknown shape, 0.1 m
Radar Cross Section
Small (<0.1 m²)

Expand to show TLE details & history
Last TLE update: 1 day ago

TLE from 1 day ago
0 DMSP 5D-2 F11 DEB
1 28312U 91082Z   26263.04650126  .00000505  00000-0  22908-3 0  9993
2 28312  98.5995 294.3712 0010915 186.0048 174.1003 14.26180025160758
Epoch: 2026-09-20T01:06Z
TLE epoch observation values (Epoch: 2026-09-20T01:06:57.708Z)
Latitude
-0.00005°
Longitude
-81.31555°
Altitude
815.254 km
Speed
7.442 km/s
True Right ascension
19h 37m 29s
True Declination
0° 00' 00"
Sunlit
Object was in daylight at epoch
Visualization orbit readout
Latitude
Unknown
Longitude
Unknown
Altitude
Unknown
Speed
Unknown
Apparent Right ascension
Unknown
Apparent Declination
Unknown
Sunlit
N/A
Visualization observer readout
Local Sidereal Time
04:58:17
Azimuth
Unknown
Elevation
Unknown
Doppler factor
Unknown
Orbital elements
Apogee altitude
809.51 km
Perigee altitude
793.836 km
Semi-major axis
7,179.81 km
Eccentricity
0.00109
Inclination
98.5995°
RAAN
294.3712°
Arg. of periapsis
186.0048°
True anomaly
174.11314°
Mean anomaly
174.1003°
Eccentric anomaly
174.10672°
Mean motion
3.56758 °/min
Orbital period
100.91 mins
BSTAR
0.00022908
Loading maneuver chart data...
Computing Atmospheric mass density...

Documentation

Showing up to 5 results
|